Location: Peterborough
(44.3091°N, 78.3197°W)
Time: 05:10:45
(UTC-04:00)

Vanguard 1 Rocket - Pass Details

Date: 22 March 2023
Orbit: 655 x 4220 km, 34.3° (Epoch: 04 June)

Event Time Altitude Azimuth Distance (km) Brightness Sun altitude
Rises 00:57:42 0° 236° (WSW) 8,156 12.1 -44.9°
Enters shadow 01:03:46 - 232° (SW) 6,855 11.6 -45.0°
Reaches altitude 10° 01:04:09 10° 232° (SW) 6,771 - -45.0°
Maximum altitude 01:22:35 46° 168° (SSE) 3,035 - -45.2°
Drops below altitude 10° 01:32:38 10° 99° (E) 3,843 - -45.1°
Exits shadow 01:34:40 - 94° (E) 4,348 10.9 -45.0°
Sets 01:35:12 0° 92° (E) 4,492 11.0 -45.0°
